DW8873 Weather Reports


Display with metric or nautical units.
time (UTC)temp
F
wind
direction
speed
MPH
gust
MPH
rain 1hr
in
rain 24hr
in
rain mn
in
humidity
%
barometer
mb
20221203191547 58 322 0.0 0.0 0.00 0.00 0.00 94 1016.0
20221203190546 58 322 0.0 0.0 0.00 0.00 0.00 93 1016.0
20221203185545 58 322 0.0 0.0 0.00 0.00 0.00 93 1016.0
20221203184544 58 322 0.0 0.0 0.00 0.00 0.00 93 1016.0
20221203183542 58 322 0.0 0.0 0.00 0.00 0.00 93 1016.0
20221203182541 58 322 0.0 0.0 0.00 0.00 0.00 93 1015.6
20221203181509 58 322 0.0 0.0 0.00 0.00 0.00 92 1015.6
20221203180507 59 322 0.0 0.0 0.00 0.00 0.00 93 1015.7
20221203175506 59 322 0.0 0.0 0.00 0.01 0.00 93 1015.7
20221203174505 59 322 0.0 0.0 0.00 0.01 0.00 92 1015.7
20221203173503 59 322 0.0 0.0 0.00 0.01 0.00 92 1015.7
20221203172501 59 322 0.0 0.0 0.00 0.01 0.00 92 1015.7
20221203171429 59 322 0.0 1.0 0.00 0.01 0.00 92 1015.7
20221203170357 59 322 0.0 1.0 0.00 0.01 0.00 92 1015.7
20221203165324 59 328 0.0 0.0 0.00 0.01 0.00 92 1015.7
20221203164252 59 328 0.0 0.0 0.00 0.01 0.00 91 1015.7
20221203163251 60 328 0.0 0.0 0.00 0.01 0.00 90 1015.7
20221203162250 60 328 0.0 0.0 0.00 0.01 0.00 90 1015.7
20221203161249 60 328 0.0 0.0 0.00 0.01 0.00 90 1015.7
20221203160247 60 328 0.0 0.0 0.00 0.01 0.00 91 1015.7
20221203155245 60 328 0.0 0.0 0.00 0.01 0.00 91 1015.7
20221203154243 61 328 0.0 0.0 0.00 0.01 0.00 91 1015.7
20221203153242 61 328 0.0 0.0 0.00 0.01 0.00 90 1015.7
20221203152241 61 328 0.0 0.0 0.00 0.01 0.00 90 1015.7
20221203151240 61 328 0.0 0.0 0.00 0.01 0.00 90 1016.0
20221203150208 61 328 0.0 0.0 0.00 0.01 0.00 90 1016.0
20221203145135 61 328 0.0 0.0 0.00 0.01 0.00 90 1016.0
20221203144134 61 328 0.0 0.0 0.00 0.01 0.00 90 1016.3
20221203143133 61 328 0.0 0.0 0.00 0.01 0.00 90 1016.3
20221203142132 61 328 0.0 0.0 0.00 0.01 0.00 90 1016.4
20221203141059 61 328 0.0 0.0 0.00 0.01 0.00 89 1016.4
20221203140026 62 328 0.0 0.0 0.00 0.01 0.00 89 1016.7
20221203135025 62 328 0.0 0.0 0.00 0.01 0.00 89 1016.7
20221203134023 62 328 0.0 0.0 0.00 0.01 0.00 88 1016.7
20221203133022 62 328 0.0 0.0 0.00 0.01 0.00 88 1016.7
20221203131919 63 328 0.0 0.0 0.00 0.01 0.00 87 1016.7
20221203130917 63 328 0.0 0.0 0.00 0.01 0.00 86 1017.0
20221203125845 63 328 0.0 0.0 0.00 0.01 0.00 84 1017.0
20221203124843 64 328 0.0 0.0 0.00 0.01 0.00 83 1017.0
20221203123842 64 328 0.0 0.0 0.00 0.01 0.02 82 1017.0
20221203122841 65 328 0.0 0.0 0.00 0.01 0.02 81 1017.0
20221203121839 65 328 0.0 0.0 0.00 0.01 0.02 81 1017.0
20221203120837 65 347 0.0 5.0 0.00 0.01 0.02 80 1017.0
20221203115836 65 355 0.0 5.0 0.00 0.01 0.02 80 1017.0
20221203114835 65 345 1.0 5.0 0.00 0.01 0.02 80 1017.0
20221203113834 65 35 3.0 5.0 0.00 0.01 0.02 80 1017.0
20221203112832 65 29 1.0 4.0 0.00 0.01 0.02 79 1016.7
20221203111800 65 23 1.0 4.0 0.00 0.01 0.02 79 1016.7
20221203110759 65 22 1.0 6.0 0.00 0.01 0.02 79 1016.7
20221203105758 66 356 2.0 6.0 0.00 0.01 0.02 79 1016.7
20221203104757 66 3 2.0 7.0 0.00 0.01 0.02 78 1016.7
20221203103755 66 339 3.0 8.0 0.00 0.01 0.02 78 1016.7
20221203102754 66 352 3.0 5.0 0.00 0.01 0.02 78 1016.7
20221203101753 66 45 3.0 7.0 0.00 0.01 0.02 77 1016.7
20221203100752 66 37 3.0 9.0 0.00 0.01 0.02 77 1016.4
20221203095750 66 46 3.0 9.0 0.00 0.01 0.02 76 1016.4
20221203094718 66 348 3.0 9.0 0.00 0.01 0.02 76 1016.0
20221203093717 66 25 5.0 9.0 0.00 0.01 0.02 76 1016.0
20221203092715 66 34 4.0 12.0 0.00 0.01 0.02 75 1016.0
20221203091713 67 22 5.0 12.0 0.00 0.01 0.02 74 1016.0
20221203090712 67 25 5.0 13.0 0.00 0.01 0.02 73 1016.0
20221203085711 67 10 5.0 12.0 0.00 0.01 0.02 72 1016.0
20221203084638 67 3 5.0 10.0 0.00 0.01 0.02 71 1016.0
20221203083637 67 8 4.0 11.0 0.00 0.01 0.02 69 1016.0
20221203082636 68 20 7.0 15.0 0.00 0.01 0.02 69 1015.7
20221203081634 68 13 5.0 12.0 0.00 0.01 0.02 67 1015.7
20221203080633 68 30 7.0 15.0 0.00 0.01 0.02 66 1015.6
20221203075632 68 13 5.0 15.0 0.00 0.01 0.02 65 1015.6
20221203074631 68 24 6.0 16.0 0.00 0.01 0.02 64 1015.6
20221203073630 68 358 5.0 15.0 0.00 0.01 0.02 63 1015.3
20221203072629 69 34 11.0 16.0 0.00 0.01 0.02 61 1015.6
20221203071627 69 18 7.0 16.0 0.00 0.01 0.02 62 1015.6
20221203070626 69 36 8.0 16.0 0.00 0.01 0.02 61 1015.3
20221203065624 69 16 8.0 17.0 0.00 0.01 0.02 59 1015.3
20221203064623 69 91 8.0 15.0 0.00 0.01 0.02 60 1015.3
20221203063622 69 45 6.0 15.0 0.00 0.01 0.02 61 1015.3
20221203062620 69 24 9.0 14.0 0.00 0.01 0.02 59 1015.3
20221203061619 70 40 6.0 14.0 0.00 0.01 0.02 61 1015.3
20221203060617 69 37 3.0 16.0 0.00 0.01 0.02 61 1015.3
20221203055616 70 14 6.0 16.0 0.00 0.01 0.02 61 1015.3
20221203054544 70 20 6.0 14.0 0.00 0.01 0.02 60 1015.3
20221203053543 70 12 9.0 15.0 0.00 0.01 0.02 57 1015.3
20221203052542 70 66 6.0 12.0 0.00 0.01 0.02 60 1015.3
20221203051540 71 74 5.0 13.0 0.00 0.01 0.02 59 1015.3
20221203050539 71 70 6.0 15.0 0.00 0.01 0.02 59 1015.7
20221203045537 70 97 5.0 16.0 0.00 0.01 0.02 58 1015.7
20221203044535 70 26 5.0 13.0 0.00 0.01 0.02 57 1015.7
20221203043534 71 18 7.0 14.0 0.00 0.01 0.02 54 1015.7
20221203042533 71 46 7.0 14.0 0.00 0.01 0.02 52 1016.0
20221203041531 71 38 5.0 13.0 0.00 0.01 0.02 53 1015.7
20221203040530 71 93 4.0 11.0 0.00 0.01 0.02 58 1016.0
20221203035529 71 78 6.0 17.0 0.00 0.01 0.02 58 1016.0
20221203034527 71 73 9.0 15.0 0.00 0.01 0.02 57 1016.0
20221203033526 71 36 7.0 12.0 0.00 0.01 0.02 59 1016.3
20221203032453 71 59 6.0 13.0 0.00 0.01 0.02 61 1016.3
20221203031421 71 36 6.0 14.0 0.00 0.01 0.02 61 1016.3
20221203030420 71 91 6.0 14.0 0.00 0.01 0.02 62 1016.3
20221203025418 71 62 6.0 13.0 0.00 0.01 0.02 63 1016.3
20221203024417 71 60 5.0 13.0 0.00 0.01 0.02 64 1016.7
20221203023415 71 55 4.0 13.0 0.00 0.01 0.02 63 1016.7
20221203022414 72 77 5.0 11.0 0.00 0.01 0.02 61 1016.7
20221203021412 72 99 5.0 10.0 0.00 0.01 0.02 61 1016.7
20221203020411 72 60 4.0 10.0 0.00 0.01 0.02 62 1017.0
20221203015409 71 63 3.0 12.0 0.00 0.01 0.02 63 1017.0
20221203014337 71 62 3.0 11.0 0.00 0.01 0.02 63 1017.0
20221203013335 71 35 6.0 11.0 0.00 0.01 0.02 64 1017.0
20221203012333 71 65 4.0 10.0 0.00 0.01 0.02 64 1017.0
20221203011332 70 38 7.0 11.0 0.00 0.01 0.02 64 1017.4
20221203010331 71 74 5.0 12.0 0.00 0.01 0.02 62 1017.4
20221203005329 70 60 5.0 12.0 0.00 0.01 0.02 61 1017.7
20221203004328 69 47 4.0 10.0 0.00 0.01 0.02 64 1017.7
20221203003326 68 81 4.0 10.0 0.00 0.01 0.02 65 1017.7
20221203002325 68 49 3.0 7.0 0.00 0.01 0.02 66 1017.7
20221203001325 68 65 3.0 7.0 0.00 0.01 0.02 66 1017.7
20221203000324 69 85 2.0 4.0 0.00 0.01 0.02 64 1017.7
20221202235322 69 59 3.0 4.0 0.00 0.01 0.02 65 1017.7
20221202234249 71 122 1.0 4.0 0.00 0.01 0.02 61 1018.0
20221202233248 71 139 0.0 4.0 0.00 0.01 0.02 59 1017.7
20221202232246 71 195 2.0 5.0 0.00 0.01 0.02 60 1018.1
20221202231245 72 141 2.0 6.0 0.00 0.01 0.02 60 1018.1
20221202230213 72 122 1.0 6.0 0.00 0.01 0.02 59 1018.1
20221202225212 73 232 1.0 4.0 0.00 0.01 0.02 59 1018.1
20221202224211 73 97 2.0 4.0 0.00 0.01 0.02 58 1018.1
20221202223209 73 152 3.0 6.0 0.00 0.01 0.02 61 1018.1
20221202222208 72 99 2.0 6.0 0.00 0.01 0.02 62 1018.1
20221202221206 71 21 0.0 4.0 0.00 0.01 0.02 68 1018.1
20221202220206 69 235 2.0 4.0 0.00 0.01 0.02 69 1018.4
20221202215204 69 229 2.0 4.0 0.00 0.01 0.02 70 1018.4
20221202214203 68 193 0.0 0.0 0.00 0.01 0.02 73 1018.4
20221202213202 68 289 0.0 0.0 0.00 0.01 0.02 72 1018.4
20221202212200 67 304 0.0 0.0 0.00 0.01 0.02 76 1018.4
20221202211158 66 216 0.0 0.0 0.00 0.01 0.02 75 1018.4
20221202210126 65 317 0.0 0.0 0.00 0.01 0.02 81 1018.0
20221202205054 64 269 0.0 0.0 0.00 0.01 0.02 83 1018.0
20221202204052 63 232 0.0 0.0 0.00 0.01 0.02 87 1018.0
20221202203051 61 249 0.0 0.0 0.00 0.01 0.02 88 1017.7
20221202202050 60 249 0.0 0.0 0.00 0.01 0.02 90 1017.7
20221202201049 60 249 0.0 0.0 0.00 0.01 0.02 90 1017.7
20221202200048 59 249 0.0 0.0 0.00 0.01 0.02 91 1017.7
20221202195046 60 249 0.0 0.0 0.00 0.01 0.02 91 1017.7
20221202194045 59 249 0.0 0.0 0.00 0.01 0.02 91 1017.3
20221202193012 59 249 0.0 0.0 0.00 0.01 0.02 92 1017.3